TimeEST,TemperatureF,Dew PointF,Humidity,Sea Level PressureIn,VisibilityMPH,Wind Direction,Wind SpeedMPH,Gust SpeedMPH,PrecipitationIn,Events,Conditions,WindDirDegrees,DateUTC
12:53 AM,33.1,19.9,59,29.67,10.0,West,15.0,-,N/A,,Clear,260,2014-01-20 05:53:00
1:53 AM,33.1,19.9,59,29.64,10.0,SW,11.5,-,N/A,,Clear,230,2014-01-20 06:53:00
2:53 AM,32.0,19.9,61,29.64,10.0,SW,13.8,-,N/A,,Clear,220,2014-01-20 07:53:00
3:53 AM,32.0,19.9,61,29.63,10.0,SW,12.7,-,N/A,,Clear,220,2014-01-20 08:53:00
4:53 AM,33.1,21.0,61,29.62,10.0,SW,11.5,-,N/A,,Clear,220,2014-01-20 09:53:00
5:53 AM,33.1,21.9,64,29.63,10.0,WSW,12.7,-,N/A,,Partly Cloudy,250,2014-01-20 10:53:00
6:53 AM,36.0,23.0,59,29.62,10.0,SW,12.7,-,N/A,,Mostly Cloudy,230,2014-01-20 11:53:00
7:53 AM,36.0,24.1,62,29.63,10.0,WSW,12.7,-,N/A,,Scattered Clouds,250,2014-01-20 12:53:00
8:53 AM,37.0,25.0,62,29.65,10.0,West,13.8,29.9,N/A,,Overcast,270,2014-01-20 13:53:00
9:53 AM,37.0,25.0,62,29.66,10.0,West,13.8,25.3,N/A,,Overcast,270,2014-01-20 14:53:00
10:53 AM,37.0,26.1,65,29.67,10.0,West,15.0,27.6,N/A,,Overcast,270,2014-01-20 15:53:00
11:53 AM,37.0,26.1,65,29.68,10.0,West,21.9,28.8,N/A,,Overcast,260,2014-01-20 16:53:00
12:53 PM,37.0,27.0,67,29.66,10.0,WNW,19.6,-,N/A,,Overcast,290,2014-01-20 17:53:00
1:33 PM,36.0,27.0,70,29.64,10.0,West,13.8,-,N/A,,Overcast,280,2014-01-20 18:33:00
1:53 PM,36.0,27.0,70,29.69,10.0,West,15.0,-,N/A,,Overcast,280,2014-01-20 18:53:00
2:53 PM,36.0,27.0,70,29.73,10.0,West,16.1,-,N/A,,Overcast,280,2014-01-20 19:53:00
3:53 PM,35.1,28.0,76,29.76,5.0,WNW,12.7,-,0.00,Snow,Light Snow,290,2014-01-20 20:53:00
4:09 PM,34.0,28.9,82,29.73,1.8,NW,11.5,-,0.00,Snow,Light Snow,310,2014-01-20 21:09:00
4:42 PM,33.1,30.0,89,29.76,2.5,NW,12.7,-,0.00,Snow,Light Snow,310,2014-01-20 21:42:00
4:50 PM,33.8,28.4,81,29.76,5.0,WNW,10.4,-,0.00,Snow,Light Snow,290,2014-01-20 21:50:00
4:53 PM,33.1,28.9,85,29.80,6.0,NW,15.0,20.7,0.00,Snow,Light Snow,310,2014-01-20 21:53:00
5:26 PM,34.0,25.0,70,29.77,10.0,WNW,20.7,28.8,0.00,,Overcast,290,2014-01-20 22:26:00
5:53 PM,34.0,24.1,67,29.83,10.0,WNW,16.1,24.2,0.00,,Overcast,300,2014-01-20 22:53:00
6:21 PM,33.1,26.1,75,29.79,4.0,NW,17.3,-,0.00,Snow,Light Snow,310,2014-01-20 23:21:00
6:53 PM,32.0,25.0,75,29.86,10.0,WNW,9.2,-,0.00,,Overcast,300,2014-01-20 23:53:00
7:53 PM,32.0,24.1,73,29.88,10.0,WNW,11.5,-,N/A,,Overcast,290,2014-01-21 00:53:00
8:53 PM,30.9,24.1,76,29.88,10.0,NW,8.1,-,N/A,,Overcast,310,2014-01-21 01:53:00
9:53 PM,30.9,24.1,76,29.89,10.0,NW,8.1,-,N/A,,Overcast,310,2014-01-21 02:53:00
10:53 PM,30.0,21.9,72,29.90,10.0,NW,5.8,-,N/A,,Overcast,320,2014-01-21 03:53:00
11:53 PM,28.9,21.0,72,29.90,10.0,North,6.9,-,N/A,,Overcast,350,2014-01-21 04:53:00